{"data":{"norad_id":66343,"intl_designator":"2025-253AA","name":"STARLINK-35467","alt_names":[],"object_type":"PAYLOAD","status":"ACTIVE","operator":null,"country":"US","launch_date":"2025-11-06","launch_site_code":"AFETR","launch_vehicle":null,"mission":null,"orbit_class":"UNKNOWN","rcs_meters":null,"size_class":null,"mass_kg":null,"dimensions":null,"purposes":["comms"],"wikipedia_slug":null,"has_3d_model":false,"image_url":null,"decayed_at":null,"tle_current":{"epoch":"2026-05-25T00:12:00.988128Z","epoch_age_seconds":78370,"freshness":"FRESH","line1":"1 66343U 25253AA  26145.00834477  .00019457  00000+0  71438-3 0  9991","line2":"2 66343  42.9976 141.7382 0001343 270.3401  89.7297 15.27595752 31919","mean_motion":15.27595752,"eccentricity":0.0001343,"inclination_deg":42.9976,"raan_deg":141.7382,"arg_perigee_deg":270.3401,"mean_anomaly_deg":89.7297,"bstar":0.00071438,"rev_number":3191,"period_min":94.265776669952,"perigee_km":482.08047833201,"apogee_km":483.92338024841,"semimajor_km":6861.1389292902,"source":"CELESTRAK","updated_at":"2026-05-25T13:38:21.171965Z"}}}